Regional Weather Roundup
Issued by NWS Spokane, WA

Current Version | Previous Version | Text Only | Print | Product List | Glossary On
Versions: 1 2 3 4 5 6 7 8 9 10 11 12 13 14 15 16 17 18 19 20 21 22 23 24 25 26 27 28 29 30 31 32 33 34 35 36 37 38 39 40 41 42 43 44 45 46 47 48 49 50
816
NZUS01 KOTX 270905
RWROTX

Eastern Washington/Northern Idaho Roundup
National Weather Service, Spokane WA
200 AM PDT TUE SEP 27 2016

Note: "fair" indicated few or no clouds below 12,000 feet with no
significant weather and/or obstructions to visibility.

...Northeast Washington and Northern Idaho Panhandle...

CITY           SKY/WX    TMP DP  RH WIND       PRES   REMARKS
Spokane Intl   CLEAR     62  43  49 S6        30.01R
Spokane Downto CLEAR     55  48  77 NE5       30.01R
Deer Park      CLEAR     46  41  82 NW3       30.01S
Sandpoint      CLEAR     45  45 100 CALM      30.02F
Bonners Ferry  FAIR      48  45  87 CALM      30.03S

...Southeast Washington and southern Idaho Panhandle...

CITY           SKY/WX    TMP DP  RH WIND       PRES   REMARKS
Walla Walla    CLEAR     63  47  55 S6        29.99R
Pullman/Moscow CLEAR     60  44  55 CALM      30.05R
Lewiston       CLEAR     64  46  52 VRB3      29.98S
Lowell           N/A     53  50  89 CALM      30.11R
Grangeville    FAIR      59  39  47 NE6       30.08S

...Columbia Basin...

CITY           SKY/WX    TMP DP  RH WIND       PRES   REMARKS
Ephrata        CLEAR     56  46  69 CALM      29.96R
Moses Lake     CLEAR     53  45  74 NE3       29.96F
Pasco          CLEAR     54  50  86 CALM      29.96S
Hermiston      CLEAR     58  46  64 S7        29.96S
Pendleton      CLEAR     58  46  64 SE8       30.01R

...East Slopes Cascades...

CITY           SKY/WX    TMP DP  RH WIND       PRES   REMARKS
The Dalles     CLEAR     68  54  60 CALM      29.99R
Yakima         CLEAR     56  48  74 CALM      29.99S
Ellensburg     CLEAR     66  52  60 NW17      30.00F
Stampede Pass  CLOUDY    51  49  92 VRB5      30.15R
Wenatchee      CLEAR     66  49  54 NW7       29.96F
Omak           CLEAR     56  44  64 CALM      29.94F

...Southern British Columbia...

CITY           SKY/WX    TMP DP  RH WIND       PRES   REMARKS

...Western Montana...

CITY           SKY/WX    TMP DP  RH WIND       PRES   REMARKS
Kalispell      SUNNY     41  41 100 CALM      30.07F
Libby            N/A     45  43  93 CALM      30.04S
Missoula       CLEAR     48  44  86 CALM      30.14S

...Neighboring Cities...

CITY           SKY/WX    TMP DP  RH WIND       PRES   REMARKS
Seattle        MOCLDY    64  55  72 NE9       30.12R
Portland       MOCLDY    64  58  80 NW6       30.11R
Boise          CLEAR     62  42  47 SE10      30.10F
Great Falls    CLEAR     56  41  57 S14       30.05F



USA.gov is the U.S. government's official web portal to all federal, state and local government web resources and services.